Location: El Centro
(32.7920°N, 115.5620°W)
Time: 18:48:30
(UTC-08:00)

Hamsat - Visible Passes

Search period start: 03 March 2015 00:00
Search period end: 13 March 2015 01:00
Orbit: 590 x 625 km, 97.6° (Epoch: 02 March)

Date Brightness Start Highest point End Pass type
(mag) Time Alt. Az. Time Alt. Az. Time Alt. Az.
03 Mar ? 05:02:44 10° NNE 05:07:01 67° E 05:11:19 10° S visible
04 Mar ? 05:16:10 10° N 05:20:28 82° WNW 05:24:47 10° SSW visible
05 Mar ? 05:29:40 10° N 05:33:54 55° WNW 05:38:06 10° SSW visible
06 Mar ? 04:08:58 10° ENE 04:11:12 14° E 04:13:39 10° SE visible
07 Mar ? 04:21:34 10° NE 04:24:45 21° E 04:28:05 10° SE visible
08 Mar ? 05:34:30 10° NE 05:38:16 30° E 05:42:07 10° SSE visible
09 Mar ? 05:47:37 10° NNE 05:51:45 43° E 05:55:54 10° S visible
10 Mar ? 06:00:53 10° NNE 06:05:11 65° E 06:09:30 10° S visible
11 Mar ? 06:14:14 10° N 06:18:35 84° WNW 06:22:55 10° SSW visible
12 Mar ? 06:27:41 10° N 06:31:57 57° WNW 06:36:12 10° SSW visible
